SCP
0 0 0 0 0 0 0 0 0 0 0 0 0 0 0 0 0 0 0 0 0 0 0 0 0 0 0 0 0 0 0 0 0 0 0 0 0 0 0 0 0 0 0 0 0 0 0 0 0
0 0 0 0 0 0 0 0 0 0 0 0 0 0 0 0 0 0 0 0 0 0 0 0 0 0 0 0 0 0 0 0 0 0 0 0 0 0 0 0 0 0 0 0 0 0 0 0 0
0 0 0 0 0 0 0 0 0 0 0 0 0 0 0 0 0 0 0 0 0 0 0 0 0 0 0 0 0 0 0 0 0 0 0 0 0 0 0 0 0 0 0 0 0 0 0 0 0
0 0 0 0 0 0 0 0 0 0 0 0 0 0 0 0 0 0 0 0 0 0 0 0 0 0 0 0 0 0 0 0 0 0 0 0 0 0 0 0 0 0 0 0 0 0 0 0 0
0 0 0 0 0 0 0 0 0 0 0 0 0 0 0 0 0 0 0 0 0 0 0 0 0 0 0 0 0 0 0 0 0 0 0 0 0 0 0 0 0 0 0 0 0 0 0 0 0
0 0 0 0 0 0 0 0 0 0 0 0 0 0 0 0 0 0 0 0 0 0 0 0 0 0 0 0 0 0 0 0 0 0 0 0 0 0 0 0 0 0 0 0 0 0 0 0 0
0 0 0 0 0 0 0 0 0 0 0 0 0 0 0 0 1 0 0 0 0 0 0 0 0 0 0 0 0 0 0 0 0 0 0 0 0 0 0 0 0 0 0 0 0 0 0 0 0
0 0 0 0 0 0 0 0 0 0 0 0 0 0 0 0 1 1 1 0 0 0 0 -0 0 0 0 0 0 0 0 0 0 0 0 0 0 0 0 0 0 0 0 0 0 0 0 0 0
0 0 0 0 0 0 0 0 0 0 0 0 0 0 0 1 1 1 1 1 0 0 0 0 -0 -0 0 0 0 0 0 0 0 0 0 0 0 0 0 0 0 0 0 0 0 0 0 0 0
0 0 0 0 0 0 0 0 0 0 0 0 0 0 1 1 1 1 1 1 0 0 0 0 0 0 0 0 0 0 0 0 0 0 0 0 0 0 0 0 0 0 0 0 0 0 0 0 0
0 0 0 0 0 0 0 0 0 0 0 0 0 1 1 1 1 1 1 0 0 0 0 0 0 0 0 0 0 0 0 0 0 0 0 0 0 0 0 0 0 0 0 0 0 0 0 0 0
0 0 0 0 0 0 0 0 0 0 0 0 1 1 1 1 1 1 1 0 0 0 0 0 0 0 0 0 0 0 0 0 0 0 0 0 0 0 0 0 0 0 0 0 0 0 0 0 0
0 0 0 0 0 0 0 0 0 0 0 1 1 1 1 0 0 0 0 1 1 1 0 0 0 0 0 0 0 0 0 0 0 0 0 0 0 0 0 0 0 0 0 0 0 0 0 0 0
0 0 0 0 0 0 0 0 0 0 1 1 1 1 1 1 1 1 1 1 1 1 1 0 0 0 0 0 0 0 0 0 0 0 0 0 0 0 0 0 0 0 0 0 0 0 0 0 0
0 0 0 0 0 0 0 0 0 1 1 1 1 1 1 1 1 1 1 1 1 1 1 1 0 0 0 0 0 0 0 0 0 0 0 0 0 0 0 0 0 0 0 0 0 0 0 0 0
0 0 0 0 0 0 0 0 0 1 1 1 1 1 1 1 1 1 1 1 1 1 1 1 1 0 0 0 0 0 0 0 0 0 0 0 0 0 0 0 0 0 0 0 0 0 0 0 0
0 0 0 0 0 0 0 0 0 1 1 1 1 1 1 1 1 1 1 1 1 1 1 1 0 0 0 0 0 0 0 0 0 0 0 0 0 0 0 0 0 0 0 0 0 0 0 0 0
0 0 0 0 0 0 0 0 0 1 1 1 1 1 1 1 1 1 1 1 1 1 1 1 0 0 0 0 0 0 0 0 0 0 0 0 0 0 0 0 0 0 0 0 0 0 0 0 0
0 0 0 0 0 0 0 0 0 1 1 1 1 1 1 1 1 1 1 1 1 1 1 1 1 0 0 0 0 0 0 0 0 0 0 0 0 0 0 0 0 0 0 0 0 0 0 0 0
0 0 0 0 0 0 0 0 0 0 1 1 1 1 1 1 1 1 1 1 1 1 1 1 1 1 0 0 0 0 0 0 0 0 0 0 0 0 0 0 0 0 0 0 0 0 0 0 0
0 0 0 0 0 0 0 0 0 0 0 1 1 1 1 1 1 1 1 1 1 1 1 1 1 1 1 0 0 0 0 0 0 0 0 0 0 0 0 0 0 0 0 0 0 0 0 0 0
0 0 0 0 0 0 0 0 0 0 0 0 1 1 1 1 1 1 1 1 1 1 1 1 1 1 1 1 0 0 0 0 0 0 0 0 0 0 0 0 0 0 0 0 0 0 0 0 0
0 0 0 0 0 0 0 0 0 0 0 0 1 1 1 1 1 1 1 1 1 1 1 1 1 1 1 1 0 0 0 0 0 0 0 0 0 0 0 0 0 0 0 0 0 0 0 0 0
0 0 0 0 0 0 0 0 0 0 0 1 1 1 1 1 1 1 1 1 1 1 1 1 1 1 1 1 1 0 0 0 0 0 0 0 0 0 0 0 0 0 0 0 0 0 0 0 0
0 0 0 0 0 0 0 0 0 0 0 1 1 1 1 1 1 1 1 1 1 1 1 1 1 1 1 1 1 0 0 0 0 0 0 0 0 0 0 0 0 0 0 0 0 0 0 0 0
0 0 0 0 0 0 0 0 0 0 0 1 1 1 1 1 1 1 1 1 1 1 1 1 1 1 1 1 1 0 0 0 0 0 0 0 0 0 0 0 0 0 0 0 0 0 0 0 0
0 0 0 0 0 0 0 0 0 0 0 1 1 1 1 1 1 1 1 1 1 1 1 1 1 1 1 1 1 0 0 0 0 0 0 0 0 0 0 0 0 0 0 0 0 0 0 0 0
0 0 0 0 0 0 0 0 0 0 1 1 1 1 1 1 1 1 1 1 1 1 1 1 1 1 1 1 1 0 0 0 0 0 0 0 0 0 0 0 0 0 0 0 0 0 0 0 0
0 0 0 0 0 0 0 0 0 0 1 1 1 1 1 1 1 1 1 1 1 1 1 1 1 1 1 1 1 0 0 0 0 0 0 0 0 0 0 0 0 0 0 0 0 0 0 0 0
0 0 0 0 0 0 0 0 0 0 1 1 1 1 1 1 1 1 1 1 1 1 1 1 1 1 1 1 0 0 0 0 0 0 0 0 0 0 0 0 0 0 0 0 0 0 0 0 0
Wind_Speed
5 5 2 1 5 6 7 6 9 10 8 9 12 11 10 8 7 8 3 11 12 9 7 10 12 13 13 12 12 13 13 13 13 13 13 13 13 13 14 14 14 14 14 14 14 14 13 13 13
3 4 1 4 7 6 5 8 13 13 12 13 14 13 11 9 10 11 7 11 12 9 6 9 12 13 13 12 12 12 12 12 12 12 13 13 13 13 13 13 14 14 14 14 13 13 12 12 12
3 3 3 5 5 6 6 9 14 14 11 9 8 7 7 8 10 8 9 14 11 8 6 9 13 13 12 12 12 12 12 12 12 12 12 12 13 13 13 13 13 13 13 12 12 12 11 11 11
2 2 5 6 8 7 9 11 13 13 10 9 9 8 5 7 7 12 16 15 12 8 6 8 14 13 12 12 12 12 11 11 12 12 12 12 12 12 12 12 12 12 11 11 11 11 10 10 11
2 4 6 7 8 8 10 12 12 11 7 9 11 9 6 6 16 18 16 15 13 9 6 8 13 13 12 12 12 11 11 11 11 11 11 11 12 12 12 12 11 11 10 10 10 10 10 10 10
3 4 6 6 9 8 8 11 14 16 15 12 12 9 4 10 16 16 14 13 12 11 8 8 13 13 12 12 11 11 11 11 11 11 11 11 11 11 11 11 10 10 9 9 9 9 9 8 9
5 5 6 8 9 8 8 10 12 13 13 9 9 7 5 8 12 14 13 12 11 10 8 6 7 9 11 11 11 11 11 10 10 10 10 10 10 11 10 9 10 9 8 8 8 8 8 7 7
5 6 6 6 9 7 7 8 11 13 10 12 8 7 7 9 12 14 12 10 9 8 7 6 5 5 5 6 10 11 11 10 10 10 10 10 10 10 9 8 8 9 8 7 7 6 5 5 4
6 7 5 6 9 7 9 12 8 9 10 6 5 7 10 14 15 14 10 8 7 8 5 6 5 5 4 4 8 8 9 9 8 7 9 7 3 4 4 6 8 8 7 6 5 4 3 2 2
6 7 7 7 9 10 11 12 9 8 9 8 10 10 12 13 13 13 11 9 8 8 7 5 6 6 5 5 4 2 3 4 3 3 4 3 2 2 4 5 7 6 6 4 3 2 1 1 1
6 7 6 7 10 12 11 10 8 10 8 10 14 14 12 11 10 10 10 9 9 9 9 7 7 6 5 3 3 2 2 2 3 4 4 3 2 2 2 1 2 2 3 1 1 1 1 0 0
6 5 7 8 11 12 11 9 8 8 9 12 13 13 12 11 10 10 9 8 8 8 8 7 7 5 4 4 3 3 2 2 2 3 4 3 2 2 2 1 1 1 1 1 1 1 1 1 1
7 5 6 7 10 11 13 10 8 8 12 13 13 12 11 10 8 7 8 8 8 7 7 7 7 6 5 4 3 4 3 3 3 3 3 4 3 3 3 2 2 2 1 2 2 1 1 1 2
3 4 5 8 9 9 13 9 7 9 14 14 13 10 9 9 9 8 7 7 7 7 7 6 6 5 5 4 3 3 3 3 3 2 3 4 3 4 3 3 3 2 2 3 2 2 2 2 1
4 5 4 3 6 6 12 7 7 12 14 13 12 10 9 8 9 10 10 8 8 7 6 6 6 5 5 4 3 3 3 3 3 2 3 4 4 4 4 3 3 3 3 2 2 2 1 1 1
5 5 2 1 4 4 9 6 7 12 14 11 11 10 9 8 8 9 10 8 8 8 6 6 6 5 4 3 3 2 2 3 2 2 3 3 4 4 4 3 2 2 2 2 2 2 1 1 1
4 2 1 2 2 5 6 6 8 10 12 11 10 9 9 7 7 7 8 8 8 7 7 5 4 4 4 3 3 2 2 2 2 2 2 3 4 4 3 2 2 2 2 2 2 2 2 1 1
2 2 1 2 1 5 6 6 9 10 11 10 10 9 8 8 7 8 8 8 7 6 6 5 4 4 3 3 2 2 1 1 1 2 2 3 3 3 3 2 2 2 1 1 1 2 1 2 2
4 3 3 3 3 4 6 6 8 9 8 8 7 7 7 7 6 7 7 8 7 6 5 5 5 4 3 2 2 2 1 1 1 1 3 3 3 3 3 2 2 2 2 2 2 2 1 1 1
3 3 1 1 2 4 5 3 4 7 10 9 9 8 8 6 6 7 7 7 7 6 5 5 5 5 4 3 2 2 2 1 2 1 2 3 3 4 4 3 3 2 2 2 2 2 1 1 1
1 5 5 4 2 5 7 4 1 2 5 7 7 7 8 10 10 8 8 7 7 6 6 6 5 5 4 4 2 2 1 1 0 1 1 2 3 4 3 4 3 3 3 3 3 3 3 2 1
2 4 5 5 4 0 4 2 3 1 3 5 5 6 7 8 8 8 7 7 7 6 6 5 5 5 4 4 3 3 3 2 3 2 2 2 2 3 3 3 4 3 3 3 3 3 2 3 2
3 2 4 4 4 3 3 5 4 1 4 5 6 8 8 8 9 8 7 7 6 6 6 5 5 4 4 4 4 4 2 2 1 1 1 1 1 2 3 3 3 3 2 3 3 2 2 2 3
2 7 7 7 6 2 2 4 4 5 7 7 7 9 9 9 8 7 6 6 5 5 5 4 5 4 4 4 4 4 4 2 1 1 1 1 1 1 1 2 2 3 2 3 3 3 3 3 3
6 8 5 5 5 3 2 3 6 6 7 10 10 9 8 8 8 7 7 6 6 6 5 5 5 3 3 3 3 3 4 3 3 2 2 1 1 1 1 2 2 2 2 3 2 2 2 2 2
3 10 8 4 4 3 3 0 5 3 5 7 7 8 9 9 8 8 8 8 7 7 6 5 5 3 3 3 3 3 3 2 2 2 2 2 2 2 2 1 1 1 2 2 2 2 2 2 2
3 3 8 8 2 2 3 3 5 3 5 6 7 8 10 9 9 8 8 7 7 7 7 7 6 4 3 3 3 2 2 2 2 2 1 1 1 1 1 1 1 1 1 1 2 1 1 1 2
6 7 6 6 5 1 1 2 4 4 5 6 8 9 9 9 8 8 8 7 6 6 5 6 5 5 4 3 3 3 2 2 1 1 1 1 1 1 1 1 1 1 1 1 1 1 1 1 1
2 2 6 5 6 7 3 6 8 11 10 10 10 11 11 11 9 8 7 6 6 6 6 6 5 4 3 3 2 3 2 2 2 1 1 1 1 1 1 1 1 1 1 1 1 1 1 1 1
6 7 8 6 3 5 5 7 5 10 9 10 10 9 9 10 9 8 7 6 6 6 5 5 5 4 3 3 3 3 3 2 2 1 1 1 1 1 1 1 2 1 1 1 1 1 1 2 2
Wind_Direction
181 171 172 104 57 59 79 87 94 82 65 65 77 81 79 66 97 124 143 132 129 128 124 119 117 113 110 107 105 103 101 100 100 100 100 100 101 103 104 104 104 105 106 107 109 110 111 112 114
177 166 140 58 81 81 77 89 86 92 112 104 83 82 76 73 91 115 127 134 131 129 125 123 120 115 112 109 107 105 105 105 105 105 104 103 103 104 106 107 107 107 108 108 108 109 111 112 113
180 175 89 68 88 109 104 97 104 101 97 89 90 71 70 104 116 129 141 137 128 121 120 128 122 119 116 113 110 108 107 106 107 107 107 107 106 106 108 110 110 110 110 110 111 111 112 113 113
144 73 56 80 95 110 119 120 117 109 85 74 86 75 70 111 121 134 138 136 126 123 124 130 125 122 120 118 116 113 112 110 109 109 109 109 109 110 110 111 112 111 111 111 112 112 115 116 114
73 73 67 82 98 108 116 117 117 104 89 90 93 101 89 90 120 133 137 136 132 132 131 132 130 128 126 123 121 119 117 114 113 112 113 113 113 112 113 114 114 114 113 113 114 114 113 113 113
63 71 84 98 103 100 106 115 108 103 110 109 108 105 99 122 128 137 138 138 138 140 139 138 137 135 133 130 127 125 122 121 120 118 118 118 116 113 113 117 118 119 119 118 116 115 113 114 112
116 106 118 117 108 104 117 118 119 123 127 130 127 106 114 131 137 136 137 136 138 141 141 139 141 139 140 137 134 130 128 127 126 124 124 123 122 122 121 121 123 124 123 121 119 118 116 115 114
139 109 102 112 115 119 122 107 123 129 122 134 133 127 151 153 136 132 133 133 136 141 145 145 140 136 139 141 142 139 138 138 136 134 133 130 128 128 126 126 128 128 127 126 124 123 122 119 115
106 92 119 141 131 134 123 110 108 105 120 138 116 131 144 138 131 127 129 130 142 147 153 155 149 149 147 153 152 149 148 148 145 142 140 130 112 115 126 139 136 133 134 134 134 135 134 125 114
102 117 162 160 139 138 127 121 122 105 103 100 107 118 128 132 135 136 143 148 153 159 166 164 166 166 164 164 143 151 154 150 148 148 140 132 137 148 145 152 144 146 145 148 162 176 167 114 63
113 136 144 124 126 128 124 117 108 116 124 143 141 142 140 138 139 145 152 153 157 159 163 166 171 170 167 154 158 170 156 165 176 174 166 153 144 143 132 137 144 157 160 145 223 244 271 211 194
89 107 120 123 125 125 127 126 118 130 152 153 147 146 142 144 150 153 154 154 150 151 158 161 155 156 162 156 166 172 168 177 183 178 171 157 148 152 159 170 182 185 167 190 220 234 241 241 240
85 88 98 115 114 122 119 122 122 128 135 139 142 143 147 150 155 156 153 150 147 147 151 155 147 154 159 152 164 166 171 178 181 168 167 159 158 165 170 178 192 206 193 190 204 222 223 231 249
129 107 110 116 109 115 117 120 114 141 141 145 148 152 155 156 158 149 146 146 149 150 148 147 149 156 147 147 151 156 163 170 160 159 164 161 158 164 169 175 189 210 211 201 197 202 201 205 194
92 77 60 96 103 118 109 100 142 151 147 151 155 154 153 160 159 157 159 157 154 152 146 149 156 155 149 146 150 146 160 159 158 164 165 164 160 162 166 172 186 203 203 199 187 184 171 178 180
49 56 52 310 119 139 111 140 165 153 148 154 162 161 157 166 168 163 160 155 155 149 147 158 156 154 155 143 137 132 148 150 158 162 162 168 168 163 158 166 191 197 178 176 180 173 149 170 181
35 88 211 280 185 149 116 147 165 158 153 157 160 162 160 165 168 166 161 157 155 153 154 158 146 153 153 137 130 122 123 143 160 162 168 179 174 163 157 172 185 180 168 173 187 168 166 176 213
227 160 200 211 219 118 119 143 155 164 159 158 155 157 159 167 175 167 158 156 151 151 153 151 147 155 147 130 115 107 106 135 146 169 184 182 181 172 162 172 181 170 155 174 168 164 172 181 200
182 163 171 216 192 111 119 133 156 157 152 150 152 157 163 171 170 157 156 153 146 147 150 153 151 159 148 141 140 142 163 196 189 203 195 193 190 181 170 172 177 172 174 195 182 155 161 205 165
153 134 185 280 161 120 107 103 147 153 163 167 166 167 168 154 148 155 155 154 156 158 159 157 160 166 169 168 165 165 167 197 203 214 220 208 197 191 184 176 182 187 179 181 179 156 157 214 164
226 177 185 168 71 73 97 32 60 137 144 158 166 169 170 167 163 162 161 163 161 165 170 170 169 166 173 169 140 118 87 54 52 222 240 232 206 195 188 186 184 186 178 191 200 180 169 198 234
272 216 163 134 103 67 112 130 291 177 142 155 157 164 179 173 158 161 161 162 171 176 170 165 168 166 168 160 153 157 164 184 215 204 211 238 217 199 194 195 195 193 186 193 207 189 182 179 213
216 161 124 126 114 72 44 113 268 198 160 182 176 180 179 171 159 160 164 166 169 166 164 166 163 168 169 167 170 165 174 200 210 177 196 238 246 219 209 198 194 193 193 201 203 190 190 185 187
110 60 44 47 66 52 242 138 244 212 187 176 179 184 174 162 154 153 153 148 151 151 152 155 157 169 173 174 174 174 176 176 163 171 183 224 248 252 242 200 189 195 196 200 199 198 197 197 185
77 79 41 9 20 262 275 121 241 220 176 169 179 177 163 152 148 151 152 160 163 161 158 156 157 165 175 172 172 177 178 173 181 187 191 200 213 238 236 194 181 194 201 197 191 190 206 199 192
152 131 149 177 200 279 351 199 265 222 162 156 162 154 147 151 159 162 165 167 168 168 162 158 164 170 173 173 172 169 173 171 183 187 184 200 210 227 232 194 185 200 199 191 184 184 204 194 204
141 157 160 131 122 69 332 327 339 60 109 127 136 140 152 162 164 166 170 166 168 170 169 168 168 169 174 171 166 155 158 163 174 180 180 206 224 213 192 170 166 177 180 165 149 167 207 192 201
161 155 96 106 128 122 308 266 223 193 169 151 151 157 162 165 166 168 171 172 172 171 166 161 163 172 172 171 173 164 162 157 153 138 156 202 219 194 162 142 131 142 154 145 141 153 203 173 199
170 119 109 112 141 143 184 259 218 191 177 166 170 169 168 168 167 165 169 173 158 156 158 159 160 158 164 170 167 154 155 159 159 167 181 187 187 140 125 124 111 115 131 163 160 189 166 170 177
178 180 149 144 186 148 153 256 232 177 168 164 169 168 169 165 163 162 162 152 146 151 153 156 159 163 171 168 155 151 146 148 157 176 174 126 102 77 86 99 100 108 112 131 152 180 180 175 160